Weather in Neytrino

Russia / The Kabardino-Balkar Republic     43°16′42″N   42°41′18″E
temp.,
°C
wind,
m/s
gust,
m/s
humid.,
%
clouds,
%
prec.,
mm/h
press.,
hPa
HPBL,
m
2 march, tue
tue200:00−20ssw2298100 0.1 103021
03:00−21sw229593 0.1 103022
06:00−22sw227824 0.0 103120
09:00−16sw228112 0.0 1030115
12:00−12sw33740 0.0 1028523
15:00−11sw338220 0.0 1026532
18:00−18ssw439671 0.1 102635
21:00−18ssw449476 0.1 102755
3 march, wed
wed300:00−19ssw449262 0.0 102656
03:00−19ssw549058 0.1 102555
06:00−19sw549073 0.0 102461
09:00−15ssw558881 0.0 1023198
12:00−13ssw5687100 0.1 1021521
15:00−13ssw5583100 0.4 1021833
18:00−17sw439591 0.4 102332
21:00−19sw439786 0.6 102728
4 march, thu
thu400:00−20sw449883 0.1 102839
03:00−20sw449686 0.1 102938
06:00−19sw237169 0.0 102922
09:00−12sw226034 0.0 102874
12:00−9ssw21570 0.0 1026409
15:00−9ssw23816 0.0 1024337
18:00−16ssw338829 0.0 102422
21:00−17ssw337021 0.0 102524
5 march, fri
fri500:00−17ssw23600 0.0 102424
03:00−16sw23370 0.0 102321
06:00−16wsw12320 0.0 102221
09:00−9sw22500 0.0 102147
12:00−6sw22490 0.0 1019493
15:00−6sw22680 0.0 1019492
18:00−13sw33876 0.0 102123
21:00−15sw33477 0.0 102226
6 march, sat
sat600:00−14sw33380 0.0 102226
03:00−14sw33356 0.0 102127
06:00−13sw433429 0.0 102027
09:00−8ssw445129 0.0 1018104
12:00−6ssw565657 0.0 1016420
15:00−6ssw556578 0.0 1015569
18:00−11ssw4588100 0.0 101574
21:00−12ssw5593100 0.3 1016127